Flag for Bahrain Weather past 2 weeks in Riffa, Bahrain

Now
64 °F

Passing clouds.


Feels Like: 64 °F
Forecast: 65 / 71 °F
Wind: 22 mph from Northwest

Location: Bahrain International Airport

Current Time: Feb 27, 2015 at 10:36:14 AM

Latest Report: Feb 27, 2015 at 10:00 AM


Visibility: N/A

Pressure: 30.04 "Hg

Humidity: 64%

Dew point: 52 °F

Location of RiffaLocation

Historic Weather in Riffa — Graph

°F

Riffa temperature yesterday

Maximum temperature yesterday: 72 °F (at 1:00 PM)
Minimum temperature yesterday: 63 °F (at 3:00 AM)
Average temperature yesterday: 67 °F

Past Weeks' High & Low Weather Summary

 TemperatureHumidityPressure
High86 °F (Feb 20, 4:00 PM)94% (Feb 18, 5:00 AM)30.18 "Hg (Feb 18, 5:00 AM)
Low55 °F (Feb 23, 4:00 AM)29% (Feb 12, 3:00 PM)29.53 "Hg (Feb 20, 2:00 PM)
Average67 °F66%29.95 "Hg
* Reported Feb 12 9:00 AM — Feb 27 9:00 AM, Riffa, Weather by CustomWeather, © 2015

Note: Actual official high and low records may vary slightly from our data, if they occured in-between our weather recording intervals... More about our weather records

Advertising

Riffa weather history for previous 24 hours

 ConditionsComfort  
Time TempWeatherWind HumidityBarometerVisibility
9:00 AM
Fri, Feb 27
63 °FPassing clouds.22 mph68%30.04 "HgN/A
8:00 AM63 °FPassing clouds.21 mph68%30.01 "Hg6 mi
7:00 AM63 °FPassing clouds.17 mph68%30.01 "Hg4 mi
6:00 AM63 °FPassing clouds.18 mph68%29.98 "Hg4 mi
5:00 AM63 °FPassing clouds.15 mph68%29.98 "Hg4 mi
4:00 AM64 °FClear.23 mph64%29.95 "Hg5 mi
3:00 AM64 °FClear.15 mph68%29.98 "Hg10 mi
2:00 AM64 °FClear.14 mph68%29.98 "Hg10 mi
1:00 AM64 °FClear.14 mph64%29.98 "Hg10 mi
12:00 AM66 °FClear.14 mph64%30.01 "Hg10 mi
11:00 PM
Thu, Feb 26
64 °FClear.14 mph64%30.01 "Hg10 mi
10:00 PM64 °FClear.16 mph64%30.01 "Hg10 mi
9:00 PM66 °FClear.16 mph60%30.04 "Hg10 mi
8:00 PM66 °FClear.18 mph60%30.04 "Hg10 mi
7:00 PM66 °FClear.18 mph60%30.01 "Hg10 mi
6:00 PM66 °FClear.16 mph64%30.01 "Hg10 mi
5:00 PM68 °FSunny.18 mph53%29.98 "Hg10 mi
4:00 PM70 °FSunny.18 mph60%29.98 "Hg10 mi
3:00 PM72 °FSunny.16 mph61%29.98 "Hg10 mi
2:00 PM72 °FSunny.13 mph57%29.98 "Hg10 mi
1:00 PM72 °FPassing clouds.8 mph57%29.98 "HgN/A
12:00 PM70 °FPassing clouds.7 mph64%30.01 "HgN/A
11:00 AM70 °FSunny.9 mph69%30.01 "Hg10 mi
10:00 AM70 °FPassing clouds.3 mph64%30.01 "HgN/A
Weather by CustomWeather, © 2015

See weather overviewHow to use our weather pages